APSTAR 7

Last updated on Thu Mar 14 2024 00:02:38 GMT+0000 (Coordinated Universal Time)

1 38107U 12013A 24073.60977270 -.00000112 00000+0 00000+0 0 9993 2 38107 0.0219 129.4134 0002829 234.1257 104.1736 1.00271836 43537
UTC large
Height (km)
Speed (km/s)
/
Latitude / Longitude
Inclination (degrees)
Orbital Period (minutes)
Azimuth
Elevation
Range (km)
Doppler Factor

Next 0 passes for location: London (51.5072 / 0.1276)

Sorry there are no passes over London.